Regional Weather Roundup
Issued by NWS

Home | Current Version | Previous Version | Graphics & Text | Print | Product List | Glossary On
Versions: 1 2 3 4 5 6 7 8 9 10 11 12 13 14 15 16 17 18 19 20 21 22 23 24 25 26 27 28 29 30 31 32 33 34 35 36 37 38 39 40 41 42 43 44 45 46 47 48 49 50
741
ASUS43 KDMX 231301
RWRIA

WEATHER ROUNDUP FOR IOWA
NATIONAL WEATHER SERVICE DES MOINES IA
800 AM CDT SUN APR 23 2017

NOTE: "FAIR" INDICATES FEW OR NO CLOUDS BELOW 12,000 FEET WITH NO
SIGNIFICANT WEATHER AND/OR OBSTRUCTIONS TO VISIBILITY.

* - THESE STATIONS ARE NOT NWS STATIONS...THUS NOT UNDER NWS
QUALITY CONTROL.  THEY ALSO DO NOT REPORT WEATHER SUCH
AS PRECIPITATION OR FOG.

IAZ001>003-012>014-020>022-031>034-043>046-231400-
   NORTHWEST IOWA

CITY           SKY/WX    TMP DP  RH WIND       PRES   REMARKS
CARROLL *      SUNNY     50  37  62 CALM      30.14F
CHEROKEE *     SUNNY     38  38 100 CALM      30.13S
DENISON *      SUNNY     41  37  87 CALM      30.16F
LE MARS *      SUNNY     45  37  76 SW5       30.13R
ORANGE CITY *  SUNNY     46  36  66 SW6       30.11S
SHELDON *      SUNNY     48  34  57 SW8       30.10R
SIOUX CITY     SUNNY     41  37  86 SE6       30.13F
SPENCER        SUNNY     48  36  63 SW9       30.12S
STORM LAKE *   SUNNY     46  36  66 SW5       30.13S
$$

IAZ055>058-069>071-079>083-090>094-231400-
   SOUTHWEST IOWA

CITY           SKY/WX    TMP DP  RH WIND       PRES   REMARKS
ATLANTIC *     SUNNY     39  36  87 CALM      30.18S
AUDUBON *      SUNNY     39  36  87 CALM      30.17F
CLARINDA *     SUNNY     37  37 100 CALM      30.21S
COUNCIL BLFS * SUNNY     46  41  81 CALM      30.17S
CRESTON *      SUNNY     46  36  66 W5        30.19R
HARLAN  *      SUNNY     39  39 100 CALM      30.20S
LAMONI         SUNNY     49  35  58 W5        30.17S
RED OAK *      SUNNY     39  37  93 CALM      30.19S
SHENANDOAH *   SUNNY     41  37  87 CALM      30.20R
$$

IAZ047>049-059>061-072>074-084-231400-
   CENTRAL IOWA

CITY           SKY/WX    TMP DP  RH WIND       PRES   REMARKS
AMES           SUNNY     46  41  82 CALM      30.15S
ANKENY *       SUNNY     43  39  87 CALM      30.18R
BOONE *        SUNNY     50  34  53 SW6       30.14F
CHARITON *     SUNNY     48  32  53 CALM      30.17S
DES MOINES     SUNNY     49  33  54 CALM      30.17R
GRINNELL*      SUNNY     49  33  55 CALM      30.18S
KNOXVILLE *    SUNNY     48  34  57 SW3       30.16S
MARSHALLTOWN   SUNNY     44  37  76 CALM      30.15S
NEWTON *       SUNNY     48  36  61 S3        30.16S
PELLA *        SUNNY     47  42  82 CALM      30.19R
PERRY *          N/A     45  35  66 SW3       30.16S
$$

IAZ004>006-015-016-023>025-035-036-231400-
   NORTH CENTRAL IOWA

CITY           SKY/WX    TMP DP  RH WIND       PRES   REMARKS
ALGONA *       SUNNY     48  37  66 SW7       30.13S
ESTHERVILLE    SUNNY     49  37  63 SW7       30.11R
FORT DODGE *   SUNNY     45  37  76 S3        30.14R
MASON CITY     SUNNY     51  37  58 SW7       30.14R
FOREST CITY *    N/A     46  41  81 CALM      30.13S
WEBSTER CITY * SUNNY     48  36  61 SW6       30.12S
IOWA FALLS *     N/A     51  36  55 W3        30.15S
$$

IAZ007>011-017>019-026>030-037>042-050>054-066-231400-
   NORTHEAST IOWA

CITY           SKY/WX    TMP DP  RH WIND       PRES   REMARKS
CEDAR RAPIDS   SUNNY     48  37  65 SW3       30.15S
CHARLES CITY * SUNNY     50  36  57 SW3       30.13S
CLINTON *      SUNNY     46  37  71 CALM      30.17S
DECORAH *      SUNNY     52  34  50 W6        30.12R
DUBUQUE        MOSUNNY   47  38  71 W7        30.15S
MONTICELLO *   SUNNY     45  39  81 CALM      30.16R
OELWEIN *      SUNNY     46  39  76 S3        30.15S
WATERLOO       SUNNY     46  39  76 CALM      30.14S
$$

IAZ064-065-067-068-078-231400-
   EAST CENTRAL IOWA

CITY           SKY/WX    TMP DP  RH WIND       PRES   REMARKS
DAVENPORT        N/A     47  36  65 W5        30.17R
IOWA CITY      SUNNY     45  37  73 CALM      30.19R
MUSCATINE *    SUNNY     45  37  76 CALM      30.18S
QUAD CITIES    SUNNY     45  40  82 CALM      30.17R
$$

IAZ062-063-075>077-085>089-095>099-231400-
   SOUTHEAST IOWA

CITY           SKY/WX    TMP DP  RH WIND       PRES   REMARKS
BURLINGTON     SUNNY     50  40  68 CALM      30.17R
FAIRFIELD *    SUNNY     48  34  57 CALM      30.17S
FORT MADISON * SUNNY     50  39  66 CALM      30.18R
KEOKUK *       SUNNY     48  36  61 N6        30.16R
OSKALOOSA *      N/A     47  35  63 NW6       30.18S
OTTUMWA        SUNNY     46  37  71 CALM      30.17R
WASHINGTON *   SUNNY     46  37  71 CALM      30.19R
$$

ABBREVIATIONS USED IN REMARKS
   TC - TEMPERATURES IN CELSIUS
  WCI - WIND CHILL INDEX
   HX - HEAT INDEX
  VSB - VISIBILITY
$$





USA.gov is the U.S. government's official web portal to all federal, state and local government web resources and services.